Flight Track Log - Related Links

Times and Time Zones

All times are in EDT time to prevent confusion due to time zone crossing. See the RPA4907 flight status page for this flight to view local times or setup timezone preferences in your user account.

Time Position Orientation Groundspeed Altitude Reporting Facility
EDT Latitude Longitude Course Direction KTS MPH feet Rate Location/Type
Fri 03:40:41 PM 39.1833 -76.6333 42° Northeast 181 208 2,700  Level Potomac TRACON
Fri 03:41:35 PM 39.2333 -76.6167 14° North 162 186 5,100 2,421 Climbing Potomac TRACON
Fri 03:42:35 PM 39.2167 -76.5667 113° Southeast 174 200 7,300 1,905 Climbing Potomac TRACON
Fri 03:43:00 PM 39.1780 -76.1794 46° Northeast  Level FlightAware Approximate
Fri 03:43:41 PM 39.2000 -76.5000 108° East 189 217 9,100  Level Potomac TRACON
Fri 03:44:00 PM 39.2525 -76.0966 46° Northeast  Level FlightAware Approximate
Fri 03:44:42 PM 39.2167 -76.4167 76° East 200 230 11,000  Level Potomac TRACON
Fri 03:45:00 PM 39.3225 -76.0071 42° Northeast  Level FlightAware Approximate
Fri 03:45:42 PM 39.2333 -76.3500 72° East 238 274 11,100  Level Potomac TRACON
Fri 03:46:00 PM 39.3956 -75.9218 42° Northeast  Level FlightAware Approximate
Fri 03:46:42 PM 39.2667 -76.2667 63° Northeast 232 267 11,100  Level Potomac TRACON
Fri 03:47:42 PM 39.3000 -76.2000 57° Northeast 228 262 11,100 -32 Level Potomac TRACON
Fri 03:49:50 PM 39.3833 -76.0500 54° Northeast 240 276 11,000  Descending Philadelphia TRACON
Fri 03:50:44 PM 39.4167 -75.9833 57° Northeast 239 275 11,100  Climbing Philadelphia TRACON
Fri 03:51:44 PM 39.4500 -75.9167 57° Northeast 240 276 11,000  Descending Philadelphia TRACON
Fri 03:53:02 PM 39.5000 -75.8167 57° Northeast 237 273 11,100  Climbing Philadelphia TRACON
Fri 03:53:44 PM 39.5333 -75.7833 38° Northeast 245 282 11,000  Descending Philadelphia TRACON
Fri 03:54:44 PM 39.5833 -75.7167 46° Northeast 242 278 11,100 48 Climbing Philadelphia TRACON
Fri 03:55:50 PM 39.6333 -75.6667 38° Northeast 242 278 11,100  Level Philadelphia TRACON
Fri 03:56:50 PM 39.6833 -75.6000 46° Northeast 244 281 11,100  Level Philadelphia TRACON
Fri 03:57:44 PM 39.7000 -75.5167 75° East 236 272 11,100 -421 Level Philadelphia TRACON
Fri 03:58:44 PM 39.7333 -75.4333 62° Northeast 244 281 10,300 -1,000 Descending Philadelphia TRACON
Fri 03:59:44 PM 39.7500 -75.3667 72° East 226 260 9,100 -545 Descending Philadelphia TRACON
Fri 04:00:56 PM 39.7833 -75.2667 67° East 218 251 9,100  Level Philadelphia TRACON
Fri 04:01:44 PM 39.7833 -75.2167 90° East 210 242 9,100  Level Philadelphia TRACON
Fri 04:02:44 PM 39.8167 -75.1500 57° Northeast 219 252 9,100  Level Philadelphia TRACON
Fri 04:03:50 PM 39.8333 -75.0500 78° East 223 257 9,100  Level Philadelphia TRACON
Fri 04:04:44 PM 39.8500 -74.9833 72° East 231 266 9,100 -150 Level Philadelphia TRACON
Fri 04:05:50 PM 39.9000 -74.9167 46° Northeast 241 277 8,800 -905 Descending Philadelphia TRACON
Fri 04:06:50 PM 39.9500 -74.8500 46° Northeast 235 270 7,200 -843 Descending Philadelphia TRACON
Fri 04:07:51 PM 40.0000 -74.8000 37° Northeast 213 245 7,100 -50 Descending New York TRACON
Fri 04:08:51 PM 40.0333 -74.7500 49° Northeast 211 243 7,100  Level New York TRACON
Fri 04:09:51 PM 40.0667 -74.6833 57° Northeast 214 246 7,100 -50 Level New York TRACON
Fri 04:10:51 PM 40.1167 -74.6333 37° Northeast 218 251 7,000 -50 Descending New York TRACON
Fri 04:11:51 PM 40.1500 -74.5667 57° Northeast 220 253 7,000  Level New York TRACON
Fri 04:12:51 PM 40.2000 -74.5167 37° Northeast 221 254 7,000  Level New York TRACON
Fri 04:13:51 PM 40.2500 -74.4833 27° Northeast 243 280 7,000 -500 Level New York TRACON
Fri 04:14:51 PM 40.3167 -74.4833 360° North 236 272 6,000 -1,350 Descending New York TRACON
Fri 04:15:51 PM 40.3500 -74.4333 49° Northeast 209 241 4,300 -1,000 Descending New York TRACON
Fri 04:16:51 PM 40.3833 -74.3667 57° Northeast 180 207 4,000 -368 Descending New York TRACON
Fri 04:17:45 PM 40.4167 -74.3333 37° Northeast 191 220 3,600 -474 Descending New York TRACON
Fri 04:18:45 PM 40.4667 -74.3167 14° North 184 212 3,100 -286 Descending New York TRACON
Fri 04:19:51 PM 40.5167 -74.2833 27° Northeast 154 177 3,000 -95 Descending New York TRACON
Fri 04:20:51 PM 40.5500 -74.2500 37° Northeast 158 182 2,900 -100 Descending New York TRACON

Login

Don't have an account? Register now (free) for customized features, flight alerts, and more!